Weather History for Sanford, FL

Change the Weather History Date:

Saturday, May 3, 2014

  Actual Average Record
Temperature  
Mean Temperature 68 °F -  
Max Temperature 75 °F 85 °F 95 °F (1990)
Min Temperature 62 °F 61 °F 51 °F (1981)
Cooling Degree Days 2    
Growing Degree Days 18 (Base 50)    
Moisture  
Dew Point 66 °F    
Average Humidity 93    
Maximum Humidity 100    
Minimum Humidity 24    
Precipitation  
Precipitation 0.62 in - - ()
Sea Level Pressure  
Sea Level Pressure 29.97 in    
Wind  
Wind Speed 6 mph (NW)    
Max Wind Speed 16 mph    
Max Gust Speed -    
Visibility 8 miles    
Events Rain , Thunderstorm    
Averages and records for this station are not official NWS values.
T = Trace of Precipitation, MM = Missing Value Source: NWS Daily Summary

Daily Weather History Graph

Daily Weather History Graph

Search for Another Location

Airport:

Trip Planner

Search our weather history database for the weather conditions in past years. The results will help you decide how hot, cold, wet, or windy it might be!

Date:

Astronomy

May. 03, 2014 Rise Set
Actual Time 6:42 AM EDT 8:01 PM EDT
Civil Twilight 6:17 AM EDT 8:26 PM EDT
Nautical Twilight 5:47 AM EDT 8:56 PM EDT
Astronomical Twilight 5:16 AM EDT 9:27 PM EDT
Moon 10:14 AM EDT (5/3) No Moon Set
Length of Visible Light 14h 09m
Length of Day
13h 19m
Waxing Crescent, 19% of the Moon is Illuminated
May 3
Waxing Crescent
May 6
First Quarter
May 14
Full
May 21
Last Quarter
May 28
New

Hourly Weather History & Observations

Time (EDT) Temp. Dew Point Humidity Pressure Visibility Wind Dir Wind Speed Gust Speed Precip Events Conditions
12:53 AM 71.1 °F 71.1 °F 100% 29.92 in 9.0 mi SE 6.9 mph - 0.01 in Rain Light Rain
1:36 AM 71.1 °F 71.1 °F 100% 29.93 in 10.0 mi South 5.8 mph - 0.00 in   Partly Cloudy
1:53 AM 71.1 °F 70.0 °F 96% 29.92 in 10.0 mi South 5.8 mph - 0.00 in   Scattered Clouds
2:53 AM 71.1 °F 70.0 °F 96% 29.91 in 10.0 mi South 8.1 mph - N/A   Clear
3:53 AM 70.0 °F 69.1 °F 97% 29.91 in 10.0 mi SSW 4.6 mph - N/A   Clear
4:53 AM 69.1 °F 68.0 °F 96% 29.91 in 10.0 mi WSW 3.5 mph - N/A   Clear
5:10 AM 68.0 °F 68.0 °F 100% 29.91 in 9.0 mi NW 4.6 mph - N/A   Scattered Clouds
5:20 AM 69.1 °F 68.0 °F 96% 29.91 in 10.0 mi Calm Calm - N/A   Mostly Cloudy
5:53 AM 70.0 °F 69.1 °F 97% 29.92 in 10.0 mi SW 4.6 mph - N/A   Mostly Cloudy
6:53 AM 70.0 °F 69.1 °F 97% 29.93 in 10.0 mi Calm Calm - N/A   Mostly Cloudy
7:53 AM 71.1 °F 70.0 °F 96% 29.94 in 10.0 mi South 4.6 mph - N/A   Overcast
8:12 AM 71.1 °F 70.0 °F 96% 29.96 in 10.0 mi South 3.5 mph - 0.01 in Rain , Thunderstorm Light Rain
8:30 AM 71.1 °F 70.0 °F 96% 29.99 in 1.5 mi NW 5.8 mph - 0.09 in Rain , Thunderstorm Heavy Rain
8:51 AM 69.8 °F 69.8 °F 100% 29.97 in 1.8 mi East 3.5 mph - 0.29 in Rain Heavy Rain
8:53 AM 70.0 °F 70.0 °F 100% 29.97 in 1.8 mi Calm Calm - 0.31 in Rain Rain
8:59 AM 70.0 °F 70.0 °F 100% 29.97 in 2.0 mi SE 3.5 mph - 0.02 in Rain Heavy Rain
9:51 AM 71.6 °F 71.6 °F 100% 29.98 in 4.0 mi South 5.8 mph - 0.16 in Rain Rain
9:53 AM 71.1 °F 71.1 °F 100% 29.98 in 4.0 mi South 6.9 mph - 0.16 in Rain Light Rain
10:50 AM 68.0 °F 30.2 °F 24% 30.02 in 50.0 mi West 5.8 mph - N/A   Scattered Clouds
10:53 AM 72.0 °F 71.1 °F 97% 29.95 in 10.0 mi Calm Calm - 0.04 in   Mostly Cloudy
11:39 AM 73.0 °F 70.0 °F 90% 29.99 in 10.0 mi South 6.9 mph - N/A   Mostly Cloudy
11:40 AM 73.0 °F 70.0 °F 90% 29.99 in 10.0 mi South 8.1 mph - N/A   Overcast
11:53 AM 73.0 °F 69.1 °F 87% 29.99 in 10.0 mi SSW 6.9 mph - N/A   Overcast
12:53 PM 73.9 °F 70.0 °F 87% 29.98 in 10.0 mi SW 4.6 mph - 0.01 in   Mostly Cloudy
1:08 PM 73.0 °F 70.0 °F 90% 29.98 in 10.0 mi SW 3.5 mph - N/A   Mostly Cloudy
1:15 PM 73.9 °F 70.0 °F 87% 29.98 in 10.0 mi South 4.6 mph - N/A   Mostly Cloudy
1:48 PM 73.4 °F 69.8 °F 88% 29.98 in 10.0 mi SSW 4.6 mph - N/A   Overcast
1:53 PM 73.0 °F 69.1 °F 87% 29.98 in 10.0 mi North 8.1 mph - 0.00 in Rain Light Rain
1:57 PM 70.0 °F 68.0 °F 93% 29.97 in 2.0 mi North 5.8 mph - 0.05 in Rain Light Rain
2:02 PM 69.1 °F 68.0 °F 96% 29.97 in 1.5 mi NNW 10.4 mph - 0.07 in Rain Rain
2:07 PM 69.1 °F 68.0 °F 96% 29.97 in 3.0 mi North 11.5 mph - 0.07 in Rain Light Rain
2:53 PM 68.0 °F 66.0 °F 93% 29.97 in 10.0 mi North 11.5 mph - 0.07 in   Overcast
3:30 PM 66.0 °F 64.9 °F 96% 29.96 in 10.0 mi North 12.7 mph - N/A   Overcast
3:40 PM 66.0 °F 64.9 °F 96% 29.96 in 10.0 mi North 16.1 mph - N/A   Overcast
4:53 PM 64.9 °F 62.1 °F 90% 29.98 in 10.0 mi North 13.8 mph - N/A   Overcast
5:48 PM 64.4 °F 62.6 °F 94% 29.98 in 10.0 mi North 9.2 mph - N/A   Overcast
5:53 PM 64.0 °F 62.1 °F 93% 29.98 in 10.0 mi NNW 10.4 mph - N/A   Overcast
6:45 PM 63.0 °F 60.1 °F 90% 29.99 in 10.0 mi North 9.2 mph - 0.00 in   Overcast
6:53 PM 63.0 °F 60.1 °F 90% 29.99 in 10.0 mi NNE 8.1 mph - 0.00 in   Overcast
7:17 PM 63.0 °F 61.0 °F 93% 29.99 in 9.0 mi North 9.2 mph - 0.00 in Rain Light Rain
7:53 PM 63.0 °F 61.0 °F 93% 29.99 in 9.0 mi NE 5.8 mph - 0.00 in   Overcast
8:03 PM 63.0 °F 61.0 °F 93% 29.99 in 10.0 mi NE 5.8 mph - N/A   Overcast
8:53 PM 63.0 °F 62.1 °F 97% 30.01 in 3.0 mi North 4.6 mph - 0.01 in Rain Light Rain
9:43 PM 63.0 °F 61.0 °F 93% 30.03 in 10.0 mi North 6.9 mph - 0.01 in   Overcast
9:53 PM 63.0 °F 61.0 °F 93% 30.03 in 10.0 mi North 8.1 mph - 0.01 in   Overcast
10:13 PM 62.1 °F 60.1 °F 93% 30.04 in 10.0 mi North 6.9 mph - N/A   Overcast
10:53 PM 63.0 °F 60.1 °F 90% 30.04 in 10.0 mi NNW 6.9 mph - N/A   Overcast
11:53 PM 63.0 °F 61.0 °F 93% 30.05 in 10.0 mi NW 5.8 mph - N/A   Overcast